User: anonymous   Login
Location: Brabourne
(51.1333°N, 1.0000°E)
Time: 02:49:05
(UTC+00:00)
Language:

Meteor 2-8 Rocket - Orbit

View from above orbital plane
View from above orbital plane
View from above satellite
View from above satellite

Ground track
Ground track

The orbit data is extracted from the following two-line orbital elements,

1 13114U 82025B   21260.71532209  .00000021  00000-0  51855-5 0  9999
2 13114  82.5401  46.5757 0015820 105.5600 265.6357 13.84683745995409
Epoch (UTC): 17 September 2021 17:10:03
Eccentricity: 0.0015820
inclination: 82.5401°
perigee height: 936 km
apogee height: 959 km
right ascension of ascending node: 46.5757°
argument of perigee: 105.5600°
revolutions per day: 13.84683745
mean anomaly at epoch: 265.6357°
orbit number at epoch: 99540

The dashed part of the orbit path shows where the satellite is in the earth's shadow,  

DLR